Location: El Azufral
(10.3513°N, 67.1528°W)
Time: 09:27:28
(UTC+00:00)

ASTRO E2 - Pass Details

Date: 13 June 2024
Orbit: 420 x 421 km, 31.4° (Epoch: 19 July)

Event Time Altitude Azimuth Distance (km) Brightness Sun altitude
Rises 23:07:21 0° 246° (WSW) 2,406 6.8 -4.6°
Reaches altitude 10° 23:09:31 10° 251° (WSW) 1,539 5.9 -5.1°
Maximum altitude 23:12:59 54° 329° (NNW) 532 3.2 -5.8°
Drops below altitude 10° 23:16:26 10° 48° (NE) 1,537 4.9 -6.6°
Enters shadow 23:20:47 -7° 55° (NE) 3,281 6.5 -7.6°
